Back to catalog

ONEWEB-0637

AliveCommunicationsPO
NORAD 56078·PAYLOAD·🇬🇧 United Kingdom

Launched Mar 26, 2023 from Satish Dhawan Space Centre

Loading…

Next Passes (next 24 hours)

TLE

FreshSource: CelesTrak SupGP

Epoch: Sep 14, 2026, 16:05 UTC

1 56078C 23043AJ  26257.67064074 -.00000122  00000+0 -32555-3 0  2570
2 56078  87.8976 241.3698 0002058  94.3856   6.4296 13.15545704    19

Track ONEWEB-0637 in real time with AllMySat

Download on the App Store